Weather History for Bentonville, AR

Change the Weather History Date:

Monday, December 19, 2011

  Actual Average Record
Temperature  
Mean Temperature 52 °F -  
Max Temperature 57 °F 48 °F 66 °F (1980)
Min Temperature 48 °F 25 °F 4 °F (1981)
Degree Days  
Heating Degree Days 12    
Growing Degree Days 2 (Base 50)    
Moisture  
Dew Point 35 °F    
Average Humidity 52    
Maximum Humidity 67    
Minimum Humidity 44    
Precipitation  
Precipitation 0.00 in - - ()
Sea Level Pressure  
Sea Level Pressure 29.98 in    
Wind  
Wind Speed 7 mph (SSE)    
Max Wind Speed 9 mph    
Max Gust Speed -    
Visibility 10 miles    
Events      
Averages and records for this station are not official NWS values.
T = Trace of Precipitation, MM = Missing Value Source: NWS Daily Summary

Daily Weather History Graph

Daily Weather History Graph

Search for Another Location

Airport:

Trip Planner

Search our weather history database for the weather conditions in past years. The results will help you decide how hot, cold, wet, or windy it might be!

Date:

Astronomy

Dec. 19, 2011 Rise Set
Actual Time 7:23 AM CST 5:04 PM CST
Civil Twilight 6:54 AM CST 5:33 PM CST
Nautical Twilight 6:22 AM CST 6:05 PM CST
Astronomical Twilight 5:50 AM CST 6:36 PM CST
Moon 1:40 AM CST (12/19) 12:58 PM CST (12/19)
Length of Visible Light 10h 38m
Length of Day
9h 41m
Waning Crescent, 31% of the Moon is Illuminated
Dec 19
Waning Crescent
Dec 24
New
Jan 1
First Quarter
Jan 9
Full
Jan 16
Last Quarter

Hourly Weather History & Observations

Time (CST) Temp. Windchill Dew Point Humidity Pressure Visibility Wind Dir Wind Speed Gust Speed Precip Events Conditions
12:15 AM 48.2 °F - 32.0 °F 54% 30.04 in 10.0 mi SSW 8.1 mph - N/A   Overcast
12:35 AM 48.2 °F - 32.0 °F 54% 30.04 in 10.0 mi SSW 6.9 mph - N/A   Overcast
1:15 AM 48.2 °F - 32.0 °F 54% 30.03 in 10.0 mi SSW 5.8 mph - N/A   Mostly Cloudy
1:35 AM 48.2 °F - 33.8 °F 58% 30.03 in 10.0 mi SSW 6.9 mph - N/A   Overcast
1:55 AM 50.0 °F - 33.8 °F 54% 30.03 in 10.0 mi SSW 8.1 mph - N/A   Overcast
2:15 AM 50.0 °F - 33.8 °F 54% 30.03 in 10.0 mi South 8.1 mph - N/A   Overcast
2:35 AM 50.0 °F - 33.8 °F 54% 30.03 in 10.0 mi SSW 6.9 mph - N/A   Overcast
2:55 AM 50.0 °F - 33.8 °F 54% 30.04 in 10.0 mi SSW 8.1 mph - N/A   Overcast
3:15 AM 51.8 °F - 33.8 °F 50% 30.03 in 10.0 mi South 9.2 mph - N/A   Overcast
3:35 AM 51.8 °F - 33.8 °F 50% 30.02 in 10.0 mi South 8.1 mph - N/A   Overcast
3:55 AM 50.0 °F - 33.8 °F 54% 30.02 in 10.0 mi South 5.8 mph - N/A   Overcast
4:15 AM 50.0 °F - 33.8 °F 54% 30.01 in 10.0 mi South 8.1 mph - N/A   Overcast
4:35 AM 51.8 °F - 33.8 °F 50% 30.01 in 10.0 mi South 6.9 mph - N/A   Overcast
4:55 AM 51.8 °F - 33.8 °F 50% 30.01 in 10.0 mi South 5.8 mph - N/A   Overcast
5:15 AM 51.8 °F - 33.8 °F 50% 30.01 in 10.0 mi South 5.8 mph - N/A   Overcast
5:35 AM 51.8 °F - 33.8 °F 50% 30.00 in 10.0 mi South 8.1 mph - N/A   Overcast
5:55 AM 51.8 °F - 33.8 °F 50% 30.01 in 10.0 mi South 6.9 mph - N/A   Overcast
6:15 AM 51.8 °F - 33.8 °F 50% 30.02 in 10.0 mi SSW 8.1 mph - N/A   Overcast
6:35 AM 51.8 °F - 33.8 °F 50% 30.02 in 10.0 mi South 9.2 mph - N/A   Overcast
6:55 AM 51.8 °F - 33.8 °F 50% 30.02 in 10.0 mi South 6.9 mph - N/A   Overcast
7:15 AM 51.8 °F - 33.8 °F 50% 30.02 in 10.0 mi South 5.8 mph - N/A   Overcast
7:35 AM 51.8 °F - 33.8 °F 50% 30.03 in 10.0 mi South 4.6 mph - N/A   Overcast
7:55 AM 51.8 °F - 33.8 °F 50% 30.03 in 10.0 mi SSE 4.6 mph - N/A   Overcast
8:15 AM 51.8 °F - 35.6 °F 54% 30.03 in 10.0 mi SSE 5.8 mph - N/A   Overcast
8:35 AM 51.8 °F - 35.6 °F 54% 30.03 in 10.0 mi SSE 6.9 mph - N/A   Overcast
8:55 AM 51.8 °F - 35.6 °F 54% 30.04 in 10.0 mi SSE 6.9 mph - N/A   Overcast
9:15 AM 51.8 °F - 35.6 °F 54% 30.04 in 10.0 mi SSE 4.6 mph - N/A   Overcast
9:35 AM 51.8 °F - 33.8 °F 50% 30.04 in 10.0 mi SSE 4.6 mph - N/A   Overcast
10:15 AM 53.6 °F - 35.6 °F 51% 30.03 in 10.0 mi SE 5.8 mph - N/A   Overcast
10:35 AM 51.8 °F - 35.6 °F 54% 30.02 in 10.0 mi ESE 4.6 mph - N/A   Overcast
10:55 AM 53.6 °F - 35.6 °F 51% 30.03 in 10.0 mi SSE 4.6 mph - N/A   Overcast
11:15 AM 53.6 °F - 35.6 °F 51% 30.02 in 10.0 mi SE 5.8 mph - N/A   Overcast
11:35 AM 53.6 °F - 35.6 °F 51% 30.01 in 10.0 mi SE 3.5 mph - N/A   Overcast
11:55 AM 53.6 °F - 35.6 °F 51% 29.99 in 10.0 mi SE 5.8 mph - N/A   Overcast
12:15 PM 55.4 °F - 35.6 °F 47% 29.98 in 10.0 mi SE 3.5 mph - N/A   Overcast
12:55 PM 55.4 °F - 35.6 °F 47% 29.95 in 10.0 mi East 5.8 mph - N/A   Overcast
1:35 PM 57.2 °F - 35.6 °F 44% 29.93 in 10.0 mi East 6.9 mph - N/A   Overcast
1:55 PM 57.2 °F - 35.6 °F 44% 29.92 in 10.0 mi East 8.1 mph - N/A   Overcast
2:15 PM 57.2 °F - 37.4 °F 48% 29.92 in 10.0 mi ESE 5.8 mph - N/A   Overcast
2:35 PM 57.2 °F - 37.4 °F 48% 29.91 in 10.0 mi East 6.9 mph - N/A   Overcast
2:55 PM 55.4 °F - 41.0 °F 58% 29.90 in 10.0 mi East 5.8 mph - N/A   Overcast
3:15 PM 55.4 °F - 39.2 °F 54% 29.90 in 10.0 mi ESE 5.8 mph - N/A   Mostly Cloudy
3:35 PM 55.4 °F - 39.2 °F 54% 29.90 in 10.0 mi ESE 5.8 mph - N/A   Overcast
3:55 PM 55.4 °F - 37.4 °F 51% 29.89 in 10.0 mi East 5.8 mph - N/A   Overcast
4:15 PM 55.4 °F - 37.4 °F 51% 29.89 in 10.0 mi East 5.8 mph - N/A   Overcast
4:35 PM 55.4 °F - 35.6 °F 47% 29.88 in 10.0 mi East 6.9 mph - N/A   Overcast
4:56 PM 55.4 °F - 33.8 °F 44% 29.88 in 10.0 mi East 6.9 mph - N/A   Overcast
5:15 PM 53.6 °F - 35.6 °F 51% 29.88 in 10.0 mi East 9.2 mph - N/A   Overcast
5:35 PM 53.6 °F - 39.2 °F 58% 29.88 in 10.0 mi ENE 9.2 mph - N/A   Overcast
5:55 PM 51.8 °F - 41.0 °F 67% 29.88 in 10.0 mi East 9.2 mph - N/A   Overcast
6:15 PM 51.8 °F - 39.2 °F 62% 29.88 in 10.0 mi ENE 9.2 mph - N/A   Overcast
6:35 PM 51.8 °F - 39.2 °F 62% 29.90 in 10.0 mi NE 8.1 mph - N/A   Overcast
7:15 PM 48.2 °F - 41.0 °F 76% 29.90 in 10.0 mi NE 6.9 mph - 0.02 in   Overcast
7:35 PM 48.2 °F - 42.8 °F 82% 29.91 in 10.0 mi NE 9.2 mph - 0.04 in   Overcast
7:55 PM 48.2 °F - 42.8 °F 82% 29.90 in 10.0 mi ENE 12.7 mph 19.6 mph 0.07 in   Overcast
8:15 PM 46.4 °F 41.5 °F 42.8 °F 87% 29.91 in 10.0 mi ENE 10.4 mph - 0.05 in   Overcast
8:35 PM 46.4 °F 40.4 °F 42.8 °F 87% 29.89 in 9.0 mi East 13.8 mph - 0.12 in   Overcast
8:55 PM 46.4 °F 40.4 °F 42.8 °F 87% 29.88 in 9.0 mi East 13.8 mph - 0.15 in   Overcast
9:15 PM 46.4 °F 40.7 °F 42.8 °F 87% 29.87 in 7.0 mi ENE 12.7 mph 19.6 mph 0.14 in   Overcast
9:35 PM 46.4 °F 41.9 °F 42.8 °F 87% 29.91 in 7.0 mi NNE 9.2 mph - 0.31 in   Overcast
9:55 PM 46.4 °F 43.5 °F 42.8 °F 87% 29.91 in 8.0 mi NE 5.8 mph - 0.46 in   Overcast
10:15 PM 44.6 °F 39.7 °F 42.8 °F 93% 29.91 in 10.0 mi NNE 9.2 mph - 0.05 in   Overcast
10:35 PM 44.6 °F 41.4 °F 42.8 °F 93% 29.91 in 4.0 mi NE 5.8 mph - 0.06 in   Overcast
10:55 PM 44.6 °F 40.7 °F 42.8 °F 93% 29.91 in 8.0 mi NE 6.9 mph - 0.07 in   Overcast
11:15 PM 44.6 °F 40.7 °F 42.8 °F 93% 29.90 in 3.0 mi ENE 6.9 mph - 0.02 in   Overcast
11:35 PM 44.6 °F 39.7 °F 42.8 °F 93% 29.90 in 5.0 mi ENE 9.2 mph - 0.05 in   Overcast
11:55 PM 44.6 °F 39.2 °F 42.8 °F 93% 29.89 in 5.0 mi East 10.4 mph - 0.07 in   Overcast